This demonstration page uses our WeatherBlox Daily Observations layout. Learn more.

Left ArrowRight Arrow

44.89941, -97.11507

Hourly Observations for June 7, 2016

Temp ( °F °C ) Dew Point ( °F °C ) Humidity (%) Winds ( mph kmh ) Pressure ( in mb ) Visibility ( mi km ) Precip ( " mm )
12:53 am 00:53 Clear 48 8.9 43 6.1 83 83 N 8 13 30.02 1017 10 16 0.00 0.00
1:53 am 01:53 Clear 49 9.4 44 6.7 83 83 NNW 3 6 30.03 1017 10 16 0.00 0.00
2:53 am 02:53 Clear 50 10 44 6.7 80 80 Calm 30.03 1017 10 16 0.00 0.00
3:53 am 03:53 Clear 49 9.4 43 6.1 80 80 Calm 30.03 1017 10 16 0.00 0.00
4:53 am 04:53 Clear 47 8.3 44 6.7 90 90 Calm 30.04 1017 10 16 0.00 0.00
5:53 am 05:53 Sunny 47 8.3 43 6.1 86 86 N 3 6 30.04 1017 10 16 0.00 0.00
6:53 am 06:53 Sunny 49 9.4 45 7.2 86 86 Calm 30.04 1017 10 16 0.00 0.00
7:53 am 07:53 Sunny 54 12.2 47 8.3 77 77 N 3 6 30.02 1017 10 16 0.00 0.00
8:53 am 08:53 Sunny 61 16.1 46 7.8 58 58 NNE 5 7 30.02 1017 10 16 0.00 0.00
9:53 am 09:53 Sunny 63 17.2 45 7.2 52 52 NNW 5 7 30.03 1017 10 16 0.00 0.00
10:53 am 10:53 Sunny 65 18.3 44 6.7 47 47 WNW 6 9 30.02 1017 10 16 0.00 0.00
11:53 am 11:53 Mostly Sunny 66 18.9 44 6.7 45 45 W 8 13 30.01 1016 10 16 0.00 0.00
12:53 pm 12:53 Mostly Sunny 70 21.1 45 7.2 41 41 NNW 9 15 30.00 1016 10 16 0.00 0.00
1:53 pm 13:53 Sunny 70 21.1 45 7.2 41 41 N 9 15 29.98 1015 10 16 0.00 0.00
2:53 pm 14:53 Partly Cloudy 72 22.2 46 7.8 40 40 WNW 9 15 29.96 1015 10 16 0.00 0.00
3:53 pm 15:53 Sunny 71 21.7 45 7.2 39 39 Calm 29.95 1014 10 16 0.00 0.00
4:53 pm 16:53 Hazy 72 22.2 45 7.2 38 38 W 6 9 29.93 1014 6 10 0.00 0.00
5:53 pm 17:53 Sunny 72 22.2 45 7.2 38 38 E 3 6 29.93 1014 10 16 0.00 0.00
6:53 pm 18:53 Sunny 71 21.7 45 7.2 39 39 W 5 7 29.93 1014 10 16 0.00 0.00
7:53 pm 19:53 Sunny 70 21.1 47 8.3 44 44 NE 7 11 29.92 1013 10 16 0.00 0.00
8:53 pm 20:53 Sunny 64 17.8 47 8.3 54 54 NNE 5 7 29.93 1013 10 16 0.00 0.00
9:53 pm 21:53 Clear 61 16.1 46 7.8 58 58 NE 3 6 29.94 1014 10 16 0.00 0.00
10:53 pm 22:53 Clear 62 16.7 46 7.8 56 56 E 3 6 29.94 1014 10 16 0.00 0.00
11:53 pm 23:53 Clear 62 16.7 43 6.1 50 50 E 6 9 29.94 1014 10 16 0.00 0.00

Powered by AerisWeather